Time,TemperatureF,DewpointF,PressureIn,WindDirection,WindDirectionDegrees,WindSpeedMPH,WindSpeedGustMPH,Humidity,HourlyPrecipIn,Conditions,Clouds,dailyrainin,SoftwareType,DateUTC
2013-09-25 00:00:00,54.8,51.0,29.88,ENE,75,0.0,0.0,87,0.00,,,0.05,Wunderground v.1.15,2013-09-25 05:00:00,
2013-09-25 00:05:00,54.4,50.9,29.88,ENE,75,0.0,1.0,88,0.00,,,0.05,Wunderground v.1.15,2013-09-25 05:05:00,
2013-09-25 00:10:00,54.1,50.6,29.88,ENE,74,0.0,1.0,88,0.00,,,0.05,Wunderground v.1.15,2013-09-25 05:10:00,
2013-09-25 00:20:00,54.3,51.1,29.88,ENE,74,0.0,1.0,89,0.00,,,0.05,Wunderground v.1.15,2013-09-25 05:20:00,
2013-09-25 00:30:00,53.9,50.4,29.89,ENE,75,0.0,1.0,88,0.00,,,0.05,Wunderground v.1.15,2013-09-25 05:30:00,
2013-09-25 00:40:00,53.8,50.6,29.88,ENE,74,0.0,1.0,89,0.00,,,0.05,Wunderground v.1.15,2013-09-25 05:40:00,
2013-09-25 00:50:00,53.7,50.5,29.89,ENE,74,0.0,1.0,89,0.00,,,0.05,Wunderground v.1.15,2013-09-25 05:50:00,
2013-09-25 00:55:00,53.7,50.5,29.89,ENE,75,0.0,1.0,89,0.00,,,0.05,Wunderground v.1.15,2013-09-25 05:55:00,
2013-09-25 01:05:00,53.5,50.3,29.89,ENE,75,0.0,1.0,89,0.00,,,0.00,Wunderground v.1.15,2013-09-25 06:05:00,
2013-09-25 01:15:00,53.3,50.1,29.89,ENE,74,0.0,1.0,89,0.00,,,0.00,Wunderground v.1.15,2013-09-25 06:15:00,
2013-09-25 01:20:00,53.3,50.1,29.89,ENE,75,0.0,1.0,89,0.00,,,0.00,Wunderground v.1.15,2013-09-25 06:20:00,
2013-09-25 01:30:00,53.3,50.4,29.89,ENE,74,0.0,1.0,90,0.00,,,0.00,Wunderground v.1.15,2013-09-25 06:30:00,
2013-09-25 01:40:00,53.1,50.2,29.90,ENE,74,0.0,1.0,90,0.00,,,0.00,Wunderground v.1.15,2013-09-25 06:40:00,
2013-09-25 01:45:00,52.9,49.7,29.90,ENE,74,0.0,1.0,89,0.00,,,0.00,Wunderground v.1.15,2013-09-25 06:45:00,
2013-09-25 01:50:00,52.9,49.7,29.89,ENE,75,0.0,1.0,89,0.00,,,0.00,Wunderground v.1.15,2013-09-25 06:50:00,
2013-09-25 02:00:00,53.0,50.1,29.89,ENE,74,0.0,1.0,90,0.00,,,0.00,Wunderground v.1.15,2013-09-25 07:00:00,
2013-09-25 02:10:00,53.0,50.1,29.89,ENE,75,1.0,1.0,90,0.00,,,0.00,Wunderground v.1.15,2013-09-25 07:10:00,
2013-09-25 02:20:00,52.8,49.9,29.89,ENE,75,1.0,1.0,90,0.00,,,0.00,Wunderground v.1.15,2013-09-25 07:20:00,
2013-09-25 02:25:00,52.8,49.9,29.88,ENE,74,0.0,1.0,90,0.00,,,0.00,Wunderground v.1.15,2013-09-25 07:25:00,
2013-09-25 02:30:00,53.0,50.1,29.88,ENE,75,0.0,1.0,90,0.00,,,0.00,Wunderground v.1.15,2013-09-25 07:30:00,
2013-09-25 02:40:00,53.0,50.1,29.88,ENE,75,0.0,1.0,90,0.00,,,0.00,Wunderground v.1.15,2013-09-25 07:40:00,
2013-09-25 02:50:00,53.4,50.8,29.88,ENE,75,0.0,1.0,91,0.00,,,0.00,Wunderground v.1.15,2013-09-25 07:50:00,
2013-09-25 03:00:00,53.1,50.2,29.89,ENE,74,0.0,1.0,90,0.00,,,0.00,Wunderground v.1.15,2013-09-25 08:00:00,
2013-09-25 03:10:00,52.7,49.8,29.89,ENE,74,0.0,1.0,90,0.00,,,0.00,Wunderground v.1.15,2013-09-25 08:10:00,
2013-09-25 03:15:00,52.6,49.8,29.88,ENE,74,0.0,1.0,90,0.00,,,0.00,Wunderground v.1.15,2013-09-25 08:15:00,
2013-09-25 03:25:00,52.5,49.7,29.88,ENE,74,0.0,1.0,90,0.00,,,0.00,Wunderground v.1.15,2013-09-25 08:25:00,
2013-09-25 03:30:00,52.4,49.6,29.88,ENE,74,0.0,1.0,90,0.00,,,0.00,Wunderground v.1.15,2013-09-25 08:30:00,
2013-09-25 03:40:00,52.8,50.2,29.88,ENE,74,0.0,1.0,91,0.00,,,0.00,Wunderground v.1.15,2013-09-25 08:40:00,
2013-09-25 03:50:00,52.8,50.2,29.88,ENE,74,0.0,1.0,91,0.00,,,0.00,Wunderground v.1.15,2013-09-25 08:50:00,
2013-09-25 04:00:00,52.8,50.2,29.88,ENE,75,0.0,1.0,91,0.00,,,0.00,Wunderground v.1.15,2013-09-25 09:00:00,
2013-09-25 04:10:00,52.3,49.5,29.87,ENE,74,0.0,1.0,90,0.00,,,0.00,Wunderground v.1.15,2013-09-25 09:10:00,
2013-09-25 04:20:00,52.0,49.2,29.88,ENE,74,0.0,1.0,90,0.00,,,0.00,Wunderground v.1.15,2013-09-25 09:20:00,
2013-09-25 04:25:00,51.9,49.4,29.87,ENE,75,0.0,1.0,91,0.00,,,0.00,Wunderground v.1.15,2013-09-25 09:25:00,
2013-09-25 04:35:00,52.2,49.7,29.87,ENE,75,0.0,1.0,91,0.00,,,0.00,Wunderground v.1.15,2013-09-25 09:35:00,
2013-09-25 04:40:00,52.7,50.1,29.87,ENE,75,0.0,1.0,91,0.00,,,0.00,Wunderground v.1.15,2013-09-25 09:40:00,
2013-09-25 04:50:00,52.7,50.1,29.86,ENE,74,0.0,1.0,91,0.00,,,0.00,Wunderground v.1.15,2013-09-25 09:50:00,
2013-09-25 05:00:00,52.5,49.9,29.86,ENE,74,0.0,1.0,91,0.00,,,0.00,Wunderground v.1.15,2013-09-25 10:00:00,
2013-09-25 05:10:00,52.3,49.8,29.86,ENE,74,0.0,1.0,91,0.00,,,0.00,Wunderground v.1.15,2013-09-25 10:10:00,
2013-09-25 05:15:00,52.5,49.9,29.86,ENE,75,0.0,1.0,91,0.00,,,0.00,Wunderground v.1.15,2013-09-25 10:15:00,
2013-09-25 05:25:00,52.5,49.9,29.86,ENE,74,0.0,1.0,91,0.00,,,0.00,Wunderground v.1.15,2013-09-25 10:25:00,
2013-09-25 05:30:00,52.5,49.9,29.86,ENE,74,0.0,1.0,91,0.00,,,0.00,Wunderground v.1.15,2013-09-25 10:30:00,
2013-09-25 05:40:00,52.6,50.0,29.86,ENE,75,0.0,1.0,91,0.00,,,0.00,Wunderground v.1.15,2013-09-25 10:40:00,
2013-09-25 05:50:00,52.0,49.5,29.86,ENE,74,0.0,1.0,91,0.00,,,0.00,Wunderground v.1.15,2013-09-25 10:50:00,
2013-09-25 06:00:00,51.7,49.2,29.85,ENE,75,0.0,0.0,91,0.00,,,0.00,Wunderground v.1.15,2013-09-25 11:00:00,
2013-09-25 06:10:00,52.0,49.5,29.85,ENE,74,0.0,1.0,91,0.00,,,0.00,Wunderground v.1.15,2013-09-25 11:10:00,
2013-09-25 06:20:00,52.0,49.5,29.85,ENE,75,0.0,1.0,91,0.00,,,0.01,Wunderground v.1.15,2013-09-25 11:20:00,
2013-09-25 06:25:00,52.2,49.7,29.85,ESE,112,0.0,1.0,91,0.00,,,0.01,Wunderground v.1.15,2013-09-25 11:25:00,
2013-09-25 06:35:00,52.5,50.2,29.85,SSE,166,1.0,1.0,92,0.00,,,0.01,Wunderground v.1.15,2013-09-25 11:35:00,
2013-09-25 06:40:00,52.7,50.1,29.85,SSE,159,2.0,2.0,91,0.00,,,0.01,Wunderground v.1.15,2013-09-25 11:40:00,
2013-09-25 06:50:00,52.7,50.1,29.85,SSE,153,1.0,1.0,91,0.00,,,0.01,Wunderground v.1.15,2013-09-25 11:50:00,
2013-09-25 07:00:00,52.5,49.9,29.85,SSE,158,1.0,1.0,91,0.00,,,0.01,Wunderground v.1.15,2013-09-25 12:00:00,
2013-09-25 07:10:00,52.3,49.8,29.85,SSE,158,0.0,1.0,91,0.00,,,0.01,Wunderground v.1.15,2013-09-25 12:10:00,
2013-09-25 07:15:00,52.1,49.6,29.85,SE,130,1.0,1.0,91,0.00,,,0.01,Wunderground v.1.15,2013-09-25 12:15:00,
2013-09-25 07:20:00,52.0,49.5,29.85,SE,130,0.0,1.0,91,0.00,,,0.01,Wunderground v.1.15,2013-09-25 12:20:00,
2013-09-25 07:30:00,52.1,49.6,29.85,SE,130,0.0,1.0,91,0.00,,,0.01,Wunderground v.1.15,2013-09-25 12:30:00,
2013-09-25 07:40:00,52.1,49.6,29.86,SE,128,0.0,1.0,91,0.00,,,0.01,Wunderground v.1.15,2013-09-25 12:40:00,
2013-09-25 07:50:00,52.5,50.2,29.85,ESE,119,0.0,1.0,92,0.00,,,0.01,Wunderground v.1.15,2013-09-25 12:50:00,
2013-09-25 08:00:00,52.9,50.6,29.85,ESE,115,0.0,1.0,92,0.00,,,0.01,Wunderground v.1.15,2013-09-25 13:00:00,
2013-09-25 08:05:00,53.5,51.2,29.85,SE,136,0.0,1.0,92,0.00,,,0.01,Wunderground v.1.15,2013-09-25 13:05:00,
2013-09-25 08:15:00,54.5,52.2,29.84,SSE,157,1.0,2.0,92,0.00,,,0.01,Wunderground v.1.15,2013-09-25 13:15:00,
2013-09-25 08:20:00,54.8,52.5,29.84,ESE,118,1.0,1.0,92,0.00,,,0.01,Wunderground v.1.15,2013-09-25 13:20:00,
2013-09-25 08:30:00,55.4,53.1,29.84,SE,136,2.0,2.0,92,0.00,,,0.01,Wunderground v.1.15,2013-09-25 13:30:00,
2013-09-25 08:40:00,55.7,53.4,29.84,SE,130,2.0,2.0,92,0.00,,,0.01,Wunderground v.1.15,2013-09-25 13:40:00,
2013-09-25 08:50:00,56.2,53.9,29.85,South,177,4.0,4.0,92,0.00,,,0.01,Wunderground v.1.15,2013-09-25 13:50:00,
2013-09-25 09:00:00,56.8,54.5,29.85,South,190,4.0,4.0,92,0.00,,,0.01,Wunderground v.1.15,2013-09-25 14:00:00,
2013-09-25 09:10:00,57.4,55.1,29.85,SSE,152,3.0,4.0,92,0.00,,,0.01,Wunderground v.1.15,2013-09-25 14:10:00,
2013-09-25 09:15:00,57.8,55.5,29.85,SSE,153,4.0,5.0,92,0.00,,,0.01,Wunderground v.1.15,2013-09-25 14:15:00,
2013-09-25 09:25:00,58.7,56.4,29.85,SSE,150,4.0,5.0,92,0.00,,,0.01,Wunderground v.1.15,2013-09-25 14:25:00,
2013-09-25 09:30:00,59.3,57.0,29.85,SSE,167,4.0,4.0,92,0.00,,,0.01,Wunderground v.1.15,2013-09-25 14:30:00,
2013-09-25 09:40:00,60.1,57.8,29.85,South,182,5.0,5.0,92,0.00,,,0.01,Wunderground v.1.15,2013-09-25 14:40:00,
2013-09-25 09:50:00,61.2,58.6,29.85,South,180,5.0,5.0,91,0.00,,,0.01,Wunderground v.1.15,2013-09-25 14:50:00,
2013-09-25 10:00:00,62.4,59.7,29.85,South,170,4.0,6.0,91,0.00,,,0.01,Wunderground v.1.15,2013-09-25 15:00:00,
2013-09-25 10:05:00,62.9,59.9,29.85,South,191,5.0,6.0,90,0.00,,,0.01,Wunderground v.1.15,2013-09-25 15:05:00,
2013-09-25 10:15:00,63.4,59.8,29.86,South,179,6.0,9.0,88,0.00,,,0.01,Wunderground v.1.15,2013-09-25 15:15:00,
2013-09-25 10:20:00,63.8,60.2,29.85,South,175,6.0,7.0,88,0.00,,,0.01,Wunderground v.1.15,2013-09-25 15:20:00,
2013-09-25 10:30:00,64.1,59.5,29.85,South,184,7.0,10.0,85,0.00,,,0.01,Wunderground v.1.15,2013-09-25 15:30:00,
2013-09-25 10:40:00,65.1,59.1,29.85,SSE,162,8.0,8.0,81,0.00,,,0.01,Wunderground v.1.15,2013-09-25 15:40:00,
2013-09-25 10:45:00,65.4,58.4,29.85,South,188,9.0,9.0,78,0.00,,,0.01,Wunderground v.1.15,2013-09-25 15:45:00,
2013-09-25 10:50:00,65.9,58.5,29.85,South,189,10.0,10.0,77,0.00,,,0.01,Wunderground v.1.15,2013-09-25 15:50:00,
2013-09-25 11:00:00,66.8,58.6,29.84,South,176,9.0,9.0,75,0.00,,,0.01,Wunderground v.1.15,2013-09-25 16:00:00,
2013-09-25 11:10:00,68.1,58.7,29.84,SSE,167,7.0,12.0,72,0.00,,,0.01,Wunderground v.1.15,2013-09-25 16:10:00,
2013-09-25 11:15:00,68.4,58.6,29.83,SE,146,8.0,12.0,71,0.00,,,0.01,Wunderground v.1.15,2013-09-25 16:15:00,
2013-09-25 11:25:00,69.3,58.7,29.83,SSE,159,8.0,11.0,69,0.00,,,0.01,Wunderground v.1.15,2013-09-25 16:25:00,
2013-09-25 11:30:00,69.5,58.1,29.83,SSW,195,8.0,12.0,67,0.00,,,0.01,Wunderground v.1.15,2013-09-25 16:30:00,
2013-09-25 11:40:00,69.7,57.4,29.82,SSW,207,10.0,10.0,65,0.00,,,0.01,Wunderground v.1.15,2013-09-25 16:40:00,
2013-09-25 11:50:00,70.2,57.4,29.81,SSE,163,10.0,10.0,64,0.00,,,0.01,Wunderground v.1.15,2013-09-25 16:50:00,
2013-09-25 11:55:00,70.5,56.9,29.81,South,189,9.0,10.0,62,0.00,,,0.01,Wunderground v.1.15,2013-09-25 16:55:00,
2013-09-25 12:05:00,70.8,57.1,29.81,South,169,9.0,21.0,62,0.00,,,0.01,Wunderground v.1.15,2013-09-25 17:05:00,
2013-09-25 12:10:00,71.4,58.1,29.81,SSW,198,9.0,9.0,63,0.00,,,0.01,Wunderground v.1.15,2013-09-25 17:10:00,
2013-09-25 12:20:00,71.9,57.7,29.81,South,180,9.0,9.0,61,0.00,,,0.01,Wunderground v.1.15,2013-09-25 17:20:00,
2013-09-25 12:30:00,72.4,57.7,29.80,SSE,167,9.0,21.0,60,0.00,,,0.01,Wunderground v.1.15,2013-09-25 17:30:00,
2013-09-25 12:40:00,73.0,56.9,29.79,SSW,203,9.0,9.0,57,0.00,,,0.01,Wunderground v.1.15,2013-09-25 17:40:00,
2013-09-25 12:45:00,73.1,57.0,29.79,SSE,161,10.0,10.0,57,0.00,,,0.01,Wunderground v.1.15,2013-09-25 17:45:00,
2013-09-25 12:50:00,73.6,57.4,29.78,SSE,157,9.0,21.0,57,0.00,,,0.01,Wunderground v.1.15,2013-09-25 17:50:00,
2013-09-25 13:00:00,74.3,58.1,29.78,ESE,109,9.0,21.0,57,0.00,,,0.01,Wunderground v.1.15,2013-09-25 18:00:00,
2013-09-25 13:10:00,74.6,57.9,29.77,SSE,153,9.0,9.0,56,0.00,,,0.01,Wunderground v.1.15,2013-09-25 18:10:00,
2013-09-25 13:20:00,74.7,58.5,29.77,SE,143,8.0,21.0,57,0.00,,,0.01,Wunderground v.1.15,2013-09-25 18:20:00,
2013-09-25 13:30:00,75.2,57.9,29.76,SSE,152,9.0,21.0,55,0.00,,,0.01,Wunderground v.1.15,2013-09-25 18:30:00,
2013-09-25 13:40:00,75.7,57.4,29.75,South,174,9.0,21.0,53,0.00,,,0.01,Wunderground v.1.15,2013-09-25 18:40:00,
2013-09-25 13:45:00,75.7,57.4,29.75,South,175,10.0,21.0,53,0.00,,,0.01,Wunderground v.1.15,2013-09-25 18:45:00,
2013-09-25 13:55:00,76.5,58.1,29.74,SSW,196,8.0,21.0,53,0.00,,,0.01,Wunderground v.1.15,2013-09-25 18:55:00,
2013-09-25 14:00:00,76.7,57.7,29.74,South,171,8.0,21.0,52,0.00,,,0.01,Wunderground v.1.15,2013-09-25 19:00:00,
2013-09-25 14:10:00,76.4,56.9,29.74,SSW,208,10.0,10.0,51,0.00,,,0.01,Wunderground v.1.15,2013-09-25 19:10:00,
2013-09-25 14:20:00,76.9,56.3,29.73,SE,141,9.0,9.0,49,0.00,,,0.01,Wunderground v.1.15,2013-09-25 19:20:00,
2013-09-25 14:30:00,77.6,56.9,29.72,SSE,160,8.0,21.0,49,0.00,,,0.01,Wunderground v.1.15,2013-09-25 19:30:00,
2013-09-25 14:35:00,77.6,57.5,29.72,SE,130,8.0,21.0,50,0.00,,,0.01,Wunderground v.1.15,2013-09-25 19:35:00,
2013-09-25 14:45:00,78.2,57.5,29.71,SSE,165,7.0,21.0,49,0.00,,,0.01,Wunderground v.1.15,2013-09-25 19:45:00,
2013-09-25 14:50:00,78.3,57.0,29.71,SSE,161,8.0,21.0,48,0.00,,,0.01,Wunderground v.1.15,2013-09-25 19:50:00,
2013-09-25 15:00:00,78.8,56.3,29.70,SE,124,7.0,21.0,46,0.00,,,0.01,Wunderground v.1.15,2013-09-25 20:00:00,
2013-09-25 15:10:00,78.4,56.5,29.70,SSE,162,8.0,8.0,47,0.00,,,0.01,Wunderground v.1.15,2013-09-25 20:10:00,
2013-09-25 15:15:00,78.5,56.0,29.70,South,181,9.0,9.0,46,0.00,,,0.01,Wunderground v.1.15,2013-09-25 20:15:00,
2013-09-25 15:25:00,78.7,56.8,29.69,SE,138,9.0,21.0,47,0.00,,,0.01,Wunderground v.1.15,2013-09-25 20:25:00,
2013-09-25 15:30:00,78.8,56.9,29.69,SE,139,9.0,9.0,47,0.00,,,0.01,Wunderground v.1.15,2013-09-25 20:30:00,
2013-09-25 15:40:00,78.6,56.7,29.68,SSW,196,10.0,21.0,47,0.00,,,0.01,Wunderground v.1.15,2013-09-25 20:40:00,
2013-09-25 15:50:00,79.0,57.0,29.68,South,181,8.0,21.0,47,0.00,,,0.01,Wunderground v.1.15,2013-09-25 20:50:00,
2013-09-25 16:00:00,79.1,57.1,29.67,SSE,153,8.0,21.0,47,0.00,,,0.01,Wunderground v.1.15,2013-09-25 21:00:00,
2013-09-25 16:10:00,78.9,56.4,29.67,NE,49,9.0,9.0,46,0.00,,,0.01,Wunderground v.1.15,2013-09-25 21:10:00,
2013-09-25 16:15:00,78.8,56.9,29.66,South,175,10.0,11.0,47,0.00,,,0.01,Wunderground v.1.15,2013-09-25 21:15:00,
2013-09-25 16:25:00,79.0,56.5,29.66,South,171,9.0,21.0,46,0.00,,,0.01,Wunderground v.1.15,2013-09-25 21:25:00,
2013-09-25 16:30:00,79.4,56.8,29.66,SE,136,8.0,21.0,46,0.00,,,0.01,Wunderground v.1.15,2013-09-25 21:30:00,
2013-09-25 16:40:00,79.1,56.5,29.65,SE,144,7.0,21.0,46,0.00,,,0.01,Wunderground v.1.15,2013-09-25 21:40:00,
2013-09-25 16:50:00,78.9,56.4,29.65,South,171,9.0,9.0,46,0.00,,,0.01,Wunderground v.1.15,2013-09-25 21:50:00,
2013-09-25 16:55:00,78.8,56.3,29.65,South,173,9.0,13.0,46,0.00,,,0.01,Wunderground v.1.15,2013-09-25 21:55:00,
2013-09-25 17:05:00,78.5,56.0,29.64,ESE,111,9.0,21.0,46,0.00,,,0.01,Wunderground v.1.15,2013-09-25 22:05:00,
2013-09-25 17:10:00,78.4,55.9,29.64,SE,136,8.0,8.0,46,0.00,,,0.01,Wunderground v.1.15,2013-09-25 22:10:00,
2013-09-25 17:20:00,78.3,55.8,29.63,SSE,153,8.0,21.0,46,0.00,,,0.01,Wunderground v.1.15,2013-09-25 22:20:00,
2013-09-25 17:30:00,77.8,56.0,29.63,South,182,8.0,8.0,47,0.00,,,0.01,Wunderground v.1.15,2013-09-25 22:30:00,
2013-09-25 17:40:00,77.9,56.0,29.63,SSE,147,6.0,21.0,47,0.00,,,0.01,Wunderground v.1.15,2013-09-25 22:40:00,
2013-09-25 17:45:00,77.7,56.4,29.62,SSE,155,7.0,21.0,48,0.00,,,0.01,Wunderground v.1.15,2013-09-25 22:45:00,
2013-09-25 17:55:00,77.5,55.7,29.62,East,92,6.0,21.0,47,0.00,,,0.01,Wunderground v.1.15,2013-09-25 22:55:00,
2013-09-25 18:00:00,77.2,56.0,29.62,SE,128,6.0,13.0,48,0.00,,,0.01,Wunderground v.1.15,2013-09-25 23:00:00,
2013-09-25 18:10:00,76.7,56.7,29.62,ENE,69,7.0,7.0,50,0.00,,,0.01,Wunderground v.1.15,2013-09-25 23:10:00,
2013-09-25 18:20:00,76.3,56.8,29.61,ESE,118,5.0,5.0,51,0.00,,,0.01,Wunderground v.1.15,2013-09-25 23:20:00,
2013-09-25 18:30:00,75.7,57.4,29.61,SSE,149,5.0,5.0,53,0.00,,,0.01,Wunderground v.1.15,2013-09-25 23:30:00,
2013-09-25 18:40:00,74.8,56.5,29.61,South,169,7.0,7.0,53,0.00,,,0.01,Wunderground v.1.15,2013-09-25 23:40:00,
2013-09-25 18:45:00,74.5,56.2,29.61,ESE,109,6.0,20.0,53,0.00,,,0.01,Wunderground v.1.15,2013-09-25 23:45:00,
2013-09-25 18:50:00,74.1,55.9,29.61,SW,227,6.0,6.0,53,0.00,,,0.01,Wunderground v.1.15,2013-09-25 23:50:00,
2013-09-25 19:00:00,73.5,55.8,29.61,South,169,7.0,20.0,54,0.00,,,0.01,Wunderground v.1.15,2013-09-26 00:00:00,
2013-09-25 19:10:00,72.8,55.7,29.61,ESE,103,6.0,6.0,55,0.00,,,0.01,Wunderground v.1.15,2013-09-26 00:10:00,
2013-09-25 19:15:00,72.3,55.7,29.62,SSE,165,5.0,9.0,56,0.00,,,0.01,Wunderground v.1.15,2013-09-26 00:15:00,
2013-09-25 19:20:00,71.8,56.2,29.62,SSE,167,5.0,20.0,58,0.00,,,0.01,Wunderground v.1.15,2013-09-26 00:20:00,
2013-09-25 19:30:00,71.0,56.4,29.62,SSE,161,6.0,20.0,60,0.00,,,0.01,Wunderground v.1.15,2013-09-26 00:30:00,
2013-09-25 19:40:00,70.6,56.5,29.63,South,171,7.0,7.0,61,0.00,,,0.01,Wunderground v.1.15,2013-09-26 00:40:00,
2013-09-25 19:50:00,70.2,56.6,29.64,SSW,192,6.0,6.0,62,0.00,,,0.01,Wunderground v.1.15,2013-09-26 00:50:00,
2013-09-25 20:00:00,69.8,56.6,29.64,SSE,150,7.0,7.0,63,0.00,,,0.01,Wunderground v.1.15,2013-09-26 01:00:00,
2013-09-25 20:05:00,69.6,56.4,29.64,South,176,6.0,20.0,63,0.00,,,0.01,Wunderground v.1.15,2013-09-26 01:05:00,
2013-09-25 20:15:00,69.2,56.9,29.64,SE,144,6.0,20.0,65,0.00,,,0.01,Wunderground v.1.15,2013-09-26 01:15:00,
2013-09-25 20:20:00,68.8,56.6,29.64,SE,143,5.0,20.0,65,0.00,,,0.01,Wunderground v.1.15,2013-09-26 01:20:00,
2013-09-25 20:30:00,68.1,56.7,29.64,SE,146,3.0,3.0,67,0.00,,,0.01,Wunderground v.1.15,2013-09-26 01:30:00,
2013-09-25 20:40:00,67.4,56.5,29.64,SSE,168,2.0,20.0,68,0.00,,,0.01,Wunderground v.1.15,2013-09-26 01:40:00,
2013-09-25 20:50:00,66.8,56.7,29.64,SSE,161,2.0,2.0,70,0.00,,,0.01,Wunderground v.1.15,2013-09-26 01:50:00,
2013-09-25 20:55:00,66.5,56.8,29.64,SE,136,1.0,20.0,71,0.00,,,0.01,Wunderground v.1.15,2013-09-26 01:55:00,
2013-09-25 21:05:00,66.1,56.8,29.64,South,186,2.0,4.0,72,0.00,,,0.01,Wunderground v.1.15,2013-09-26 02:05:00,
2013-09-25 21:10:00,66.0,57.1,29.64,ESE,111,2.0,2.0,73,0.00,,,0.01,Wunderground v.1.15,2013-09-26 02:10:00,
2013-09-25 21:20:00,65.9,57.0,29.63,ENE,58,3.0,3.0,73,0.00,,,0.01,Wunderground v.1.15,2013-09-26 02:20:00,
2013-09-25 21:30:00,65.9,57.0,29.63,SSE,149,3.0,3.0,73,0.00,,,0.01,Wunderground v.1.15,2013-09-26 02:30:00,
2013-09-25 21:40:00,65.8,57.3,29.64,SE,132,3.0,20.0,74,0.00,,,0.01,Wunderground v.1.15,2013-09-26 02:40:00,
2013-09-25 21:45:00,65.7,57.2,29.64,East,86,3.0,20.0,74,0.00,,,0.01,Wunderground v.1.15,2013-09-26 02:45:00,
2013-09-25 21:55:00,65.6,57.1,29.63,SSE,148,3.0,20.0,74,0.00,,,0.01,Wunderground v.1.15,2013-09-26 02:55:00,
2013-09-25 22:00:00,65.5,57.4,29.64,ESE,103,4.0,20.0,75,0.00,,,0.01,Wunderground v.1.15,2013-09-26 03:00:00,
2013-09-25 22:05:00,65.4,57.3,29.64,SE,136,4.0,20.0,75,0.00,,,0.01,Wunderground v.1.15,2013-09-26 03:05:00,
2013-09-25 22:15:00,65.2,57.1,29.64,ESE,113,3.0,20.0,75,0.00,,,0.01,Wunderground v.1.15,2013-09-26 03:15:00,
2013-09-25 22:20:00,65.1,57.0,29.64,SE,133,3.0,3.0,75,0.00,,,0.01,Wunderground v.1.15,2013-09-26 03:20:00,
2013-09-25 22:30:00,64.9,57.2,29.64,South,176,3.0,20.0,76,0.00,,,0.01,Wunderground v.1.15,2013-09-26 03:30:00,
2013-09-25 22:40:00,64.9,57.2,29.65,SE,144,3.0,20.0,76,0.00,,,0.01,Wunderground v.1.15,2013-09-26 03:40:00,
2013-09-25 22:50:00,64.8,57.1,29.64,ESE,115,3.0,3.0,76,0.00,,,0.01,Wunderground v.1.15,2013-09-26 03:50:00,
2013-09-25 22:55:00,64.8,57.1,29.64,ESE,113,3.0,20.0,76,0.00,,,0.01,Wunderground v.1.15,2013-09-26 03:55:00,
2013-09-25 23:00:00,64.8,57.1,29.65,ESE,109,4.0,4.0,76,0.00,,,0.01,Wunderground v.1.15,2013-09-26 04:00:00,
2013-09-25 23:05:00,64.8,57.1,29.65,SSE,163,3.0,20.0,76,0.00,,,0.01,Wunderground v.1.15,2013-09-26 04:05:00,
2013-09-25 23:10:00,64.7,57.0,29.65,ESE,121,3.0,20.0,76,0.00,,,0.01,Wunderground v.1.15,2013-09-26 04:10:00,
2013-09-25 23:20:00,64.7,57.0,29.65,SE,139,4.0,4.0,76,0.00,,,0.01,Wunderground v.1.15,2013-09-26 04:20:00,
2013-09-25 23:25:00,64.7,57.0,29.65,SSE,148,4.0,20.0,76,0.00,,,0.01,Wunderground v.1.15,2013-09-26 04:25:00,
2013-09-25 23:30:00,64.7,57.0,29.64,SE,139,3.0,3.0,76,0.00,,,0.01,Wunderground v.1.15,2013-09-26 04:30:00,
2013-09-25 23:40:00,64.6,56.9,29.64,ESE,116,3.0,20.0,76,0.00,,,0.01,Wunderground v.1.15,2013-09-26 04:40:00,
2013-09-25 23:45:00,64.6,56.9,29.64,ENE,63,3.0,20.0,76,0.00,,,0.01,Wunderground v.1.15,2013-09-26 04:45:00,
2013-09-25 23:50:00,64.6,56.9,29.64,SE,130,3.0,20.0,76,0.00,,,0.01,Wunderground v.1.15,2013-09-26 04:50:00,